| time (UTC) | temp C | wind direction | speed KPH | gust KPH | rain 1hr cm | rain 24hr cm | rain mn cm | humidity % | barometer mb |
| 20260901231616 | 22 | 250 | 8.0 | 20.9 | 0.00 | 0.00 | 0.00 | 49 | 1015.7 |
| 20260901231044 | 22 | 142 | 4.8 | 16.1 | 0.00 | 0.00 | 0.00 | 50 | 1015.8 |
| 20260901230545 | 22 | 112 | 6.4 | 20.9 | 0.00 | 0.00 | 0.00 | 50 | 1015.8 |
| 20260901230105 | 22 | 255 | 8.0 | 20.9 | 0.00 | 0.00 | 0.00 | 50 | 1015.8 |
| 20260901225546 | 22 | 221 | 8.0 | 19.3 | 0.00 | 0.00 | 0.00 | 47 | 1015.9 |
| 20260901225045 | 23 | 240 | 8.0 | 19.3 | 0.00 | 0.00 | 0.00 | 47 | 1015.8 |
| 20260901224557 | 22 | 296 | 6.4 | 19.3 | 0.00 | 0.00 | 0.00 | 48 | 1015.8 |
| 20260901224044 | 22 | 229 | 6.4 | 17.7 | 0.00 | 0.00 | 0.00 | 49 | 1016.0 |
| 20260901223549 | 22 | 172 | 4.8 | 17.7 | 0.00 | 0.00 | 0.00 | 49 | 1016.0 |
| 20260901223106 | 22 | 148 | 6.4 | 19.3 | 0.00 | 0.00 | 0.00 | 48 | 1016.1 |
| 20260901222545 | 22 | 154 | 6.4 | 24.1 | 0.00 | 0.00 | 0.00 | 48 | 1016.1 |
| 20260901222045 | 22 | 120 | 6.4 | 24.1 | 0.00 | 0.00 | 0.00 | 51 | 1016.0 |
| 20260901221613 | 22 | 240 | 8.0 | 20.9 | 0.00 | 0.00 | 0.00 | 50 | 1015.9 |
| 20260901221045 | 22 | 212 | 8.0 | 20.9 | 0.00 | 0.00 | 0.00 | 51 | 1015.9 |
| 20260901220546 | 22 | 245 | 9.7 | 20.9 | 0.00 | 0.00 | 0.00 | 49 | 1016.0 |
| 20260901220104 | 22 | 257 | 6.4 | 17.7 | 0.00 | 0.00 | 0.00 | 50 | 1016.0 |
| 20260901215545 | 22 | 164 | 6.4 | 20.9 | 0.00 | 0.00 | 0.00 | 50 | 1016.1 |
| 20260901215045 | 22 | 160 | 6.4 | 22.5 | 0.00 | 0.00 | 0.00 | 51 | 1016.2 |
| 20260901214557 | 22 | 226 | 8.0 | 22.5 | 0.00 | 0.00 | 0.00 | 51 | 1016.2 |
| 20260901214046 | 22 | 231 | 14.5 | 22.5 | 0.00 | 0.00 | 0.00 | 53 | 1016.0 |
| 20260901213546 | 22 | 326 | 6.4 | 17.7 | 0.00 | 0.00 | 0.00 | 53 | 1016.2 |
| 20260901213102 | 22 | 256 | 8.0 | 17.7 | 0.00 | 0.00 | 0.00 | 53 | 1016.2 |
| 20260901212545 | 22 | 258 | 8.0 | 19.3 | 0.00 | 0.00 | 0.00 | 53 | 1016.1 |
| 20260901212045 | 23 | 222 | 6.4 | 19.3 | 0.00 | 0.00 | 0.00 | 51 | 1016.1 |
| 20260901211603 | 23 | 233 | 4.8 | 17.7 | 0.00 | 0.00 | 0.00 | 51 | 1016.1 |
| 20260901211044 | 22 | 232 | 9.7 | 19.3 | 0.00 | 0.00 | 0.00 | 54 | 1016.1 |
| 20260901210547 | 22 | 243 | 6.4 | 19.3 | 0.00 | 0.00 | 0.00 | 52 | 1016.0 |
| 20260901205545 | 22 | 205 | 6.4 | 19.3 | 0.00 | 0.00 | 0.00 | 50 | 1016.1 |
| 20260901205047 | 22 | 106 | 9.7 | 19.3 | 0.00 | 0.00 | 0.00 | 49 | 1016.0 |
| 20260901204602 | 22 | 139 | 4.8 | 16.1 | 0.00 | 0.00 | 0.00 | 49 | 1016.0 |
| 20260901204045 | 22 | 262 | 8.0 | 22.5 | 0.00 | 0.00 | 0.00 | 48 | 1016.1 |
| 20260901203548 | 22 | 158 | 8.0 | 22.5 | 0.00 | 0.00 | 0.00 | 49 | 1016.0 |
| 20260901203058 | 22 | 177 | 9.7 | 19.3 | 0.00 | 0.00 | 0.00 | 49 | 1016.1 |
| 20260901202545 | 22 | 146 | 6.4 | 19.3 | 0.00 | 0.00 | 0.00 | 51 | 1016.2 |
| 20260901202045 | 22 | 267 | 8.0 | 19.3 | 0.00 | 0.00 | 0.00 | 50 | 1016.2 |
| 20260901201603 | 22 | 302 | 4.8 | 17.7 | 0.00 | 0.00 | 0.00 | 50 | 1016.3 |
| 20260901201046 | 22 | 253 | 4.8 | 19.3 | 0.00 | 0.00 | 0.00 | 51 | 1016.3 |
| 20260901200545 | 22 | 229 | 8.0 | 19.3 | 0.00 | 0.00 | 0.00 | 50 | 1016.3 |
| 20260901200104 | 22 | 229 | 6.4 | 19.3 | 0.00 | 0.00 | 0.00 | 50 | 1016.4 |
| 20260901195545 | 21 | 244 | 6.4 | 16.1 | 0.00 | 0.00 | 0.00 | 51 | 1016.5 |
| 20260901195045 | 21 | 252 | 9.7 | 14.5 | 0.00 | 0.00 | 0.00 | 50 | 1016.5 |
| 20260901194604 | 22 | 229 | 4.8 | 14.5 | 0.00 | 0.00 | 0.00 | 48 | 1016.5 |
| 20260901194047 | 22 | 160 | 8.0 | 17.7 | 0.00 | 0.00 | 0.00 | 50 | 1016.5 |
| 20260901193547 | 21 | 199 | 4.8 | 17.7 | 0.00 | 0.00 | 0.00 | 54 | 1016.5 |
| 20260901193100 | 21 | 212 | 6.4 | 16.1 | 0.00 | 0.00 | 0.00 | 53 | 1016.6 |
| 20260901192547 | 21 | 221 | 6.4 | 14.5 | 0.00 | 0.00 | 0.00 | 54 | 1016.6 |
| 20260901192047 | 20 | 133 | 6.4 | 14.5 | 0.00 | 0.00 | 0.00 | 55 | 1016.7 |
| 20260901191550 | 20 | 222 | 4.8 | 12.9 | 0.00 | 0.00 | 0.00 | 55 | 1016.8 |
| 20260901191046 | 20 | 213 | 3.2 | 16.1 | 0.00 | 0.00 | 0.00 | 56 | 1016.7 |
| 20260901190545 | 20 | 222 | 8.0 | 16.1 | 0.00 | 0.00 | 0.00 | 56 | 1016.7 |
| 20260901185546 | 20 | 240 | 6.4 | 16.1 | 0.00 | 0.00 | 0.00 | 57 | 1016.8 |
| 20260901185045 | 20 | 124 | 6.4 | 14.5 | 0.00 | 0.00 | 0.00 | 59 | 1016.8 |
| 20260901184606 | 20 | 259 | 4.8 | 14.5 | 0.00 | 0.00 | 0.00 | 58 | 1016.9 |
| 20260901184045 | 20 | 266 | 8.0 | 14.5 | 0.00 | 0.00 | 0.00 | 58 | 1017.0 |
| 20260901183546 | 20 | 257 | 6.4 | 12.9 | 0.00 | 0.00 | 0.00 | 59 | 1017.0 |
| 20260901183114 | 19 | 122 | 6.4 | 12.9 | 0.00 | 0.00 | 0.00 | 60 | 1016.8 |
| 20260901182545 | 20 | 233 | 6.4 | 20.9 | 0.00 | 0.00 | 0.00 | 60 | 1016.8 |
| 20260901182048 | 20 | 264 | 4.8 | 20.9 | 0.00 | 0.00 | 0.00 | 61 | 1016.8 |
| 20260901181556 | 20 | 210 | 8.0 | 20.9 | 0.00 | 0.00 | 0.00 | 59 | 1016.7 |
| 20260901181046 | 20 | 236 | 4.8 | 11.3 | 0.00 | 0.00 | 0.00 | 59 | 1016.7 |
| 20260901180545 | 20 | 154 | 3.2 | 11.3 | 0.00 | 0.00 | 0.00 | 60 | 1016.7 |
| 20260901180051 | 20 | 137 | 4.8 | 19.3 | 0.00 | 0.00 | 0.00 | 61 | 1016.6 |
| 20260901175545 | 20 | 233 | 6.4 | 19.3 | 0.00 | 0.00 | 0.00 | 61 | 1016.4 |
| 20260901175045 | 20 | 218 | 8.0 | 19.3 | 0.00 | 0.00 | 0.00 | 61 | 1016.5 |
| 20260901174603 | 20 | 247 | 4.8 | 16.1 | 0.00 | 0.00 | 0.00 | 61 | 1016.4 |
| 20260901174045 | 20 | 260 | 8.0 | 16.1 | 0.00 | 0.00 | 0.00 | 60 | 1016.4 |
| 20260901173549 | 20 | 195 | 4.8 | 17.7 | 0.00 | 0.00 | 0.00 | 62 | 1016.4 |
| 20260901173139 | 20 | 233 | 6.4 | 17.7 | 0.00 | 0.00 | 0.00 | 62 | 1016.3 |
| 20260901172547 | 20 | 225 | 6.4 | 16.1 | 0.00 | 0.00 | 0.00 | 61 | 1016.4 |
| 20260901172046 | 20 | 205 | 4.8 | 14.5 | 0.00 | 0.00 | 0.00 | 62 | 1016.4 |
| 20260901171558 | 20 | 229 | 6.4 | 19.3 | 0.00 | 0.00 | 0.00 | 62 | 1016.4 |
| 20260901171046 | 20 | 155 | 8.0 | 19.3 | 0.00 | 0.00 | 0.00 | 63 | 1016.2 |
| 20260901170547 | 20 | 134 | 4.8 | 16.1 | 0.00 | 0.00 | 0.00 | 63 | 1016.1 |
| 20260901170104 | 19 | 218 | 6.4 | 16.1 | 0.00 | 0.00 | 0.00 | 63 | 1016.1 |
| 20260901165546 | 19 | 214 | 6.4 | 14.5 | 0.00 | 0.00 | 0.00 | 63 | 1016.2 |
| 20260901165043 | 19 | 130 | 6.4 | 14.5 | 0.00 | 0.00 | 0.00 | 65 | 1016.1 |
| 20260901164606 | 18 | 148 | 6.4 | 12.9 | 0.00 | 0.00 | 0.00 | 67 | 1016.0 |
| 20260901164046 | 18 | 160 | 3.2 | 16.1 | 0.00 | 0.00 | 0.00 | 68 | 1016.1 |
| 20260901163546 | 18 | 207 | 4.8 | 16.1 | 0.00 | 0.00 | 0.00 | 68 | 1016.1 |
| 20260901163116 | 18 | 155 | 6.4 | 16.1 | 0.00 | 0.00 | 0.00 | 69 | 1016.1 |
| 20260901162545 | 18 | 154 | 6.4 | 16.1 | 0.00 | 0.00 | 0.00 | 71 | 1016.1 |
| 20260901162046 | 17 | 150 | 8.0 | 19.3 | 0.00 | 0.00 | 0.00 | 71 | 1016.1 |
| 20260901161606 | 17 | 138 | 8.0 | 20.9 | 0.00 | 0.00 | 0.00 | 71 | 1016.1 |
| 20260901161044 | 17 | 153 | 8.0 | 20.9 | 0.00 | 0.00 | 0.00 | 71 | 1016.1 |
| 20260901160543 | 18 | 206 | 8.0 | 17.7 | 0.00 | 0.00 | 0.00 | 70 | 1016.0 |
| 20260901160104 | 18 | 158 | 8.0 | 17.7 | 0.00 | 0.00 | 0.00 | 70 | 1015.8 |
| 20260901155544 | 18 | 225 | 6.4 | 16.1 | 0.00 | 0.00 | 0.00 | 70 | 1015.8 |
| 20260901155044 | 18 | 160 | 4.8 | 16.1 | 0.00 | 0.00 | 0.00 | 73 | 1015.8 |
| 20260901154607 | 17 | 158 | 8.0 | 16.1 | 0.00 | 0.00 | 0.00 | 74 | 1015.8 |
| 20260901154051 | 17 | 149 | 6.4 | 14.5 | 0.00 | 0.00 | 0.00 | 75 | 1015.7 |
| 20260901153550 | 17 | 141 | 4.8 | 12.9 | 0.00 | 0.00 | 0.00 | 76 | 1015.6 |
| 20260901153102 | 17 | 174 | 4.8 | 12.9 | 0.00 | 0.00 | 0.00 | 76 | 1015.8 |
| 20260901152549 | 17 | 138 | 4.8 | 12.9 | 0.00 | 0.00 | 0.00 | 76 | 1015.7 |
| 20260901152046 | 17 | 118 | 4.8 | 12.9 | 0.00 | 0.00 | 0.00 | 77 | 1015.6 |
| 20260901151557 | 17 | 137 | 4.8 | 14.5 | 0.00 | 0.00 | 0.00 | 77 | 1015.5 |
| 20260901151049 | 17 | 254 | 6.4 | 14.5 | 0.00 | 0.00 | 0.00 | 77 | 1015.4 |
| 20260901150548 | 16 | 255 | 4.8 | 14.5 | 0.00 | 0.00 | 0.00 | 77 | 1015.3 |
| 20260901150103 | 16 | 252 | 3.2 | 11.3 | 0.00 | 0.00 | 0.00 | 77 | 1015.4 |
| 20260901145548 | 16 | 153 | 3.2 | 9.7 | 0.00 | 0.00 | 0.00 | 77 | 1015.3 |
| 20260901145052 | 16 | 142 | 3.2 | 9.7 | 0.00 | 0.00 | 0.00 | 77 | 1015.1 |
| 20260901144604 | 16 | 170 | 3.2 | 9.7 | 0.00 | 0.00 | 0.00 | 77 | 1015.2 |
| 20260901144051 | 17 | 90 | 4.8 | 11.3 | 0.00 | 0.00 | 0.00 | 76 | 1015.1 |
| 20260901143549 | 17 | 156 | 4.8 | 11.3 | 0.00 | 0.00 | 0.00 | 76 | 1015.0 |
| 20260901143106 | 17 | 143 | 4.8 | 11.3 | 0.00 | 0.00 | 0.00 | 76 | 1015.0 |
| 20260901142549 | 17 | 235 | 4.8 | 9.7 | 0.00 | 0.00 | 0.00 | 76 | 1015.0 |
| 20260901142048 | 16 | 155 | 4.8 | 9.7 | 0.00 | 0.00 | 0.00 | 77 | 1014.9 |
| 20260901141614 | 16 | 188 | 3.2 | 9.7 | 0.00 | 0.00 | 0.00 | 78 | 1014.7 |
| 20260901141049 | 16 | 155 | 3.2 | 11.3 | 0.00 | 0.00 | 0.00 | 79 | 1014.7 |
| 20260901140548 | 16 | 141 | 4.8 | 12.9 | 0.00 | 0.00 | 0.00 | 79 | 1014.6 |
| 20260901140103 | 16 | 113 | 4.8 | 12.9 | 0.00 | 0.00 | 0.00 | 79 | 1014.5 |
| 20260901135548 | 16 | 190 | 4.8 | 12.9 | 0.00 | 0.00 | 0.00 | 80 | 1014.5 |
| 20260901135045 | 16 | 127 | 3.2 | 12.9 | 0.00 | 0.00 | 0.00 | 80 | 1014.6 |
| 20260901134602 | 16 | 99 | 4.8 | 12.9 | 0.00 | 0.00 | 0.00 | 80 | 1014.4 |
| 20260901134049 | 15 | 117 | 3.2 | 12.9 | 0.00 | 0.00 | 0.00 | 80 | 1014.3 |
| 20260901133549 | 15 | 150 | 3.2 | 12.9 | 0.00 | 0.00 | 0.00 | 80 | 1014.4 |
| 20260901133055 | 15 | 158 | 4.8 | 9.7 | 0.00 | 0.00 | 0.00 | 80 | 1014.3 |
| 20260901132551 | 15 | 155 | 3.2 | 12.9 | 0.00 | 0.00 | 0.00 | 80 | 1014.3 |
| 20260901132049 | 15 | 142 | 4.8 | 12.9 | 0.00 | 0.00 | 0.00 | 81 | 1014.2 |
| 20260901131601 | 15 | 214 | 6.4 | 9.7 | 0.00 | 0.00 | 0.00 | 81 | 1014.1 |
| 20260901131050 | 15 | 141 | 3.2 | 9.7 | 0.00 | 0.00 | 0.00 | 81 | 1014.1 |
| 20260901130549 | 15 | 162 | 4.8 | 9.7 | 0.00 | 0.00 | 0.00 | 81 | 1014.1 |
| 20260901130107 | 15 | 179 | 3.2 | 6.4 | 0.00 | 0.00 | 0.00 | 82 | 1014.2 |
| 20260901125549 | 15 | 155 | 3.2 | 9.7 | 0.00 | 0.00 | 0.00 | 81 | 1014.2 |
| 20260901125049 | 15 | 179 | 4.8 | 9.7 | 0.00 | 0.00 | 0.00 | 81 | 1014.2 |
| 20260901124559 | 15 | 153 | 3.2 | 11.3 | 0.00 | 0.00 | 0.00 | 81 | 1014.1 |
| 20260901124045 | 15 | 183 | 0.0 | 12.9 | 0.00 | 0.00 | 0.00 | 81 | 1014.1 |
| 20260901123549 | 15 | 164 | 4.8 | 12.9 | 0.00 | 0.00 | 0.00 | 81 | 1014.1 |
| 20260901123106 | 15 | 243 | 3.2 | 11.3 | 0.00 | 0.00 | 0.00 | 81 | 1014.1 |
| 20260901122546 | 15 | 129 | 3.2 | 9.7 | 0.00 | 0.00 | 0.00 | 81 | 1014.0 |
| 20260901122045 | 15 | 153 | 3.2 | 9.7 | 0.00 | 0.00 | 0.00 | 81 | 1013.9 |
| 20260901121605 | 15 | 182 | 3.2 | 8.0 | 0.00 | 0.00 | 0.00 | 81 | 1013.8 |
| 20260901121045 | 15 | 142 | 3.2 | 8.0 | 0.00 | 0.00 | 0.00 | 81 | 1013.8 |
| 20260901120546 | 15 | 266 | 3.2 | 8.0 | 0.00 | 0.00 | 0.00 | 80 | 1013.7 |
| 20260901120109 | 15 | 150 | 1.6 | 6.4 | 0.00 | 0.00 | 0.00 | 80 | 1013.8 |
| 20260901115545 | 16 | 226 | 1.6 | 12.9 | 0.00 | 0.00 | 0.00 | 80 | 1013.8 |
| 20260901115047 | 15 | 155 | 3.2 | 12.9 | 0.00 | 0.00 | 0.00 | 80 | 1013.9 |
| 20260901114604 | 15 | 150 | 4.8 | 11.3 | 0.00 | 0.00 | 0.00 | 80 | 1014.0 |
| 20260901114049 | 15 | 170 | 3.2 | 14.5 | 0.00 | 0.00 | 0.00 | 80 | 1014.0 |
| 20260901113545 | 15 | 179 | 4.8 | 14.5 | 0.00 | 0.00 | 0.00 | 79 | 1013.9 |
| 20260901113057 | 16 | 115 | 4.8 | 12.9 | 0.00 | 0.00 | 0.00 | 79 | 1014.0 |
| 20260901112546 | 16 | 145 | 6.4 | 11.3 | 0.00 | 0.00 | 0.00 | 78 | 1014.0 |
| 20260901112045 | 16 | 169 | 4.8 | 9.7 | 0.00 | 0.00 | 0.00 | 78 | 1014.1 |
| 20260901111559 | 16 | 210 | 3.2 | 11.3 | 0.00 | 0.00 | 0.00 | 78 | 1014.1 |
| 20260901111045 | 16 | 233 | 3.2 | 11.3 | 0.00 | 0.00 | 0.00 | 77 | 1014.1 |
| 20260901110544 | 16 | 160 | 1.6 | 9.7 | 0.00 | 0.00 | 0.00 | 77 | 1014.1 |
| 20260901105546 | 16 | 158 | 3.2 | 12.9 | 0.00 | 0.00 | 0.00 | 77 | 1014.0 |
| 20260901105045 | 16 | 180 | 4.8 | 12.9 | 0.00 | 0.00 | 0.00 | 77 | 1014.0 |
| 20260901104551 | 16 | 191 | 3.2 | 12.9 | 0.00 | 0.00 | 0.00 | 77 | 1013.9 |
| 20260901104049 | 16 | 145 | 3.2 | 12.9 | 0.00 | 0.00 | 0.00 | 77 | 1013.9 |
| 20260901103546 | 16 | 160 | 4.8 | 12.9 | 0.00 | 0.00 | 0.00 | 78 | 1013.7 |
| 20260901103102 | 15 | 132 | 4.8 | 11.3 | 0.00 | 0.00 | 0.00 | 78 | 1013.7 |
| 20260901102546 | 15 | 138 | 3.2 | 11.3 | 0.00 | 0.00 | 0.00 | 78 | 1013.8 |
| 20260901102043 | 15 | 181 | 3.2 | 11.3 | 0.00 | 0.00 | 0.00 | 78 | 1013.7 |
| 20260901101606 | 15 | 162 | 3.2 | 8.0 | 0.00 | 0.00 | 0.00 | 78 | 1013.8 |
| 20260901101046 | 15 | 250 | 3.2 | 8.0 | 0.00 | 0.00 | 0.00 | 78 | 1013.7 |
| 20260901100546 | 15 | 205 | 3.2 | 11.3 | 0.00 | 0.00 | 0.00 | 78 | 1013.6 |
| 20260901100100 | 15 | 230 | 3.2 | 11.3 | 0.00 | 0.00 | 0.00 | 78 | 1013.7 |
| 20260901095545 | 15 | 150 | 4.8 | 11.3 | 0.00 | 0.00 | 0.00 | 78 | 1013.7 |
| 20260901095048 | 16 | 186 | 3.2 | 17.7 | 0.00 | 0.00 | 0.00 | 77 | 1013.7 |
| 20260901094602 | 16 | 194 | 6.4 | 17.7 | 0.00 | 0.00 | 0.00 | 77 | 1013.7 |
| 20260901094047 | 16 | 151 | 6.4 | 14.5 | 0.00 | 0.00 | 0.00 | 76 | 1013.7 |
| 20260901093545 | 16 | 146 | 3.2 | 11.3 | 0.00 | 0.00 | 0.00 | 76 | 1013.9 |
| 20260901093105 | 16 | 134 | 4.8 | 9.7 | 0.00 | 0.00 | 0.00 | 76 | 1013.9 |
| 20260901092545 | 16 | 148 | 3.2 | 8.0 | 0.00 | 0.00 | 0.00 | 75 | 1013.9 |
| 20260901092046 | 16 | 225 | 1.6 | 8.0 | 0.00 | 0.00 | 0.00 | 76 | 1013.9 |
| 20260901091608 | 16 | 126 | 3.2 | 8.0 | 0.00 | 0.00 | 0.00 | 76 | 1014.0 |
| 20260901091046 | 16 | 230 | 3.2 | 9.7 | 0.00 | 0.00 | 0.00 | 76 | 1014.0 |
| 20260901090548 | 16 | 233 | 1.6 | 12.9 | 0.00 | 0.00 | 0.00 | 75 | 1014.1 |
| 20260901090104 | 16 | 239 | 3.2 | 12.9 | 0.00 | 0.00 | 0.00 | 75 | 1014.1 |
| 20260901085545 | 16 | 140 | 4.8 | 9.7 | 0.00 | 0.00 | 0.00 | 75 | 1014.0 |
| 20260901085046 | 16 | 226 | 1.6 | 8.0 | 0.00 | 0.00 | 0.00 | 75 | 1014.0 |
| 20260901084623 | 16 | 168 | 4.8 | 11.3 | 0.00 | 0.00 | 0.00 | 75 | 1014.1 |
| 20260901084045 | 16 | 195 | 3.2 | 11.3 | 0.00 | 0.00 | 0.00 | 75 | 1014.0 |
| 20260901083547 | 16 | 193 | 1.6 | 8.0 | 0.00 | 0.00 | 0.00 | 75 | 1014.1 |
| 20260901083103 | 16 | 212 | 3.2 | 8.0 | 0.00 | 0.00 | 0.00 | 75 | 1014.0 |
| 20260901082544 | 16 | 231 | 3.2 | 8.0 | 0.00 | 0.00 | 0.00 | 75 | 1014.0 |
| 20260901082045 | 16 | 200 | 1.6 | 9.7 | 0.00 | 0.00 | 0.00 | 75 | 1014.0 |
| 20260901081605 | 16 | 227 | 1.6 | 9.7 | 0.00 | 0.00 | 0.00 | 75 | 1013.9 |
| 20260901081045 | 16 | 248 | 1.6 | 11.3 | 0.00 | 0.00 | 0.00 | 75 | 1013.9 |
| 20260901080546 | 16 | 241 | 1.6 | 11.3 | 0.00 | 0.00 | 0.00 | 75 | 1013.8 |
| 20260901080115 | 16 | 151 | 3.2 | 6.4 | 0.00 | 0.00 | 0.00 | 75 | 1013.8 |
| 20260901075546 | 16 | 159 | 1.6 | 9.7 | 0.00 | 0.00 | 0.00 | 75 | 1013.9 |
| 20260901075045 | 16 | 198 | 3.2 | 11.3 | 0.00 | 0.00 | 0.00 | 75 | 1013.8 |
| 20260901074628 | 15 | 132 | 4.8 | 11.3 | 0.00 | 0.00 | 0.00 | 75 | 1013.7 |
| 20260901074049 | 16 | 146 | 1.6 | 11.3 | 0.00 | 0.00 | 0.00 | 74 | 1013.7 |
| 20260901073545 | 16 | 162 | 4.8 | 11.3 | 0.00 | 0.00 | 0.00 | 74 | 1013.7 |
| 20260901073105 | 16 | 233 | 3.2 | 9.7 | 0.00 | 0.00 | 0.00 | 74 | 1013.7 |
| 20260901072545 | 16 | 146 | 4.8 | 11.3 | 0.00 | 0.00 | 0.00 | 74 | 1013.8 |
| 20260901072048 | 16 | 146 | 4.8 | 12.9 | 0.00 | 0.00 | 0.00 | 74 | 1013.7 |
| 20260901071554 | 16 | 185 | 4.8 | 12.9 | 0.00 | 0.00 | 0.00 | 74 | 1013.7 |
| 20260901071045 | 15 | 148 | 4.8 | 12.9 | 0.00 | 0.00 | 0.00 | 74 | 1013.7 |
| 20260901070548 | 15 | 129 | 4.8 | 12.9 | 0.00 | 0.00 | 0.00 | 75 | 1013.8 |
| 20260901070105 | 15 | 138 | 4.8 | 12.9 | 0.00 | 0.00 | 0.00 | 75 | 1013.8 |
| 20260901065545 | 15 | 131 | 6.4 | 12.9 | 0.00 | 0.00 | 0.00 | 76 | 1013.8 |
| 20260901065045 | 15 | 176 | 4.8 | 12.9 | 0.00 | 0.00 | 0.00 | 76 | 1013.8 |
| 20260901064600 | 15 | 181 | 3.2 | 8.0 | 0.00 | 0.00 | 0.00 | 76 | 1013.7 |
| 20260901064045 | 15 | 248 | 1.6 | 11.3 | 0.00 | 0.00 | 0.00 | 76 | 1013.9 |
| 20260901063545 | 15 | 217 | 4.8 | 11.3 | 0.00 | 0.00 | 0.00 | 76 | 1013.9 |
| 20260901063103 | 15 | 140 | 3.2 | 11.3 | 0.00 | 0.00 | 0.00 | 76 | 1013.9 |
| 20260901062545 | 15 | 214 | 3.2 | 12.9 | 0.00 | 0.00 | 0.00 | 76 | 1013.9 |
| 20260901062047 | 15 | 129 | 1.6 | 12.9 | 0.00 | 0.00 | 0.00 | 76 | 1013.9 |
| 20260901061553 | 15 | 154 | 4.8 | 16.1 | 0.00 | 0.00 | 0.00 | 76 | 1013.9 |
| 20260901061046 | 15 | 116 | 4.8 | 16.1 | 0.00 | 0.00 | 0.00 | 75 | 1014.0 |
| 20260901060546 | 15 | 159 | 4.8 | 11.3 | 0.00 | 0.00 | 0.00 | 76 | 1014.0 |
| 20260901060054 | 15 | 188 | 1.6 | 12.9 | 0.00 | 0.00 | 0.00 | 76 | 1014.0 |
| 20260901055545 | 15 | 211 | 4.8 | 17.7 | 0.00 | 0.00 | 0.00 | 75 | 1014.0 |
| 20260901055046 | 15 | 225 | 6.4 | 17.7 | 0.00 | 0.00 | 0.00 | 76 | 1014.0 |
| 20260901054602 | 15 | 271 | 3.2 | 16.1 | 0.00 | 0.00 | 0.00 | 76 | 1014.1 |
| 20260901054051 | 15 | 86 | 3.2 | 14.5 | 0.00 | 0.00 | 0.00 | 76 | 1013.9 |
| 20260901053546 | 15 | 238 | 1.6 | 11.3 | 0.00 | 0.00 | 0.00 | 76 | 1014.0 |
| 20260901053105 | 15 | 258 | 3.2 | 14.5 | 0.00 | 0.00 | 0.00 | 76 | 1013.9 |
| 20260901052545 | 15 | 240 | 3.2 | 14.5 | 0.00 | 0.00 | 0.00 | 76 | 1013.9 |
| 20260901052044 | 15 | 245 | 4.8 | 14.5 | 0.00 | 0.00 | 0.00 | 76 | 1013.9 |
| 20260901051610 | 15 | 238 | 3.2 | 11.3 | 0.00 | 0.00 | 0.00 | 76 | 1014.0 |
| 20260901051045 | 15 | 229 | 3.2 | 11.3 | 0.00 | 0.00 | 0.00 | 76 | 1013.9 |
| 20260901050549 | 15 | 257 | 3.2 | 11.3 | 0.00 | 0.00 | 0.00 | 76 | 1014.0 |
| 20260901050105 | 15 | 229 | 3.2 | 12.9 | 0.00 | 0.00 | 0.00 | 75 | 1013.8 |
| 20260901045546 | 15 | 160 | 4.8 | 12.9 | 0.00 | 0.00 | 0.00 | 75 | 1013.7 |
| 20260901045046 | 15 | 191 | 4.8 | 11.3 | 0.00 | 0.00 | 0.00 | 75 | 1013.7 |
| 20260901044606 | 15 | 227 | 3.2 | 14.5 | 0.00 | 0.00 | 0.00 | 75 | 1013.7 |
| 20260901044046 | 15 | 160 | 3.2 | 14.5 | 0.00 | 0.00 | 0.00 | 75 | 1013.6 |
| 20260901043546 | 15 | 166 | 3.2 | 14.5 | 0.00 | 0.00 | 0.00 | 75 | 1013.8 |
| 20260901043056 | 15 | 290 | 4.8 | 14.5 | 0.00 | 0.00 | 0.00 | 75 | 1013.8 |
| 20260901042546 | 15 | 259 | 4.8 | 16.1 | 0.00 | 0.00 | 0.00 | 74 | 1013.8 |
| 20260901042045 | 15 | 169 | 6.4 | 16.1 | 0.00 | 0.00 | 0.00 | 74 | 1013.7 |
| 20260901041621 | 15 | 234 | 4.8 | 16.1 | 0.00 | 0.00 | 0.00 | 74 | 1013.7 |
| 20260901041047 | 15 | 285 | 4.8 | 19.3 | 0.00 | 0.00 | 0.00 | 75 | 1013.7 |
| 20260901040547 | 16 | 155 | 6.4 | 19.3 | 0.00 | 0.00 | 0.00 | 75 | 1013.6 |
| 20260901040137 | 15 | 155 | 6.4 | 20.9 | 0.00 | 0.00 | 0.00 | 75 | 1013.5 |
| 20260901035547 | 15 | 124 | 8.0 | 20.9 | 0.00 | 0.00 | 0.00 | 74 | 1013.5 |
| 20260901035047 | 16 | 172 | 8.0 | 20.9 | 0.00 | 0.00 | 0.00 | 75 | 1013.5 |
| 20260901034558 | 15 | 120 | 8.0 | 20.9 | 0.00 | 0.00 | 0.00 | 75 | 1013.4 |
| 20260901034049 | 15 | 243 | 6.4 | 22.5 | 0.00 | 0.00 | 0.00 | 75 | 1013.4 |
| 20260901033551 | 16 | 127 | 6.4 | 22.5 | 0.00 | 0.00 | 0.00 | 74 | 1013.3 |
| 20260901033105 | 16 | 199 | 4.8 | 19.3 | 0.00 | 0.00 | 0.00 | 75 | 1013.3 |
| 20260901032547 | 16 | 99 | 8.0 | 22.5 | 0.00 | 0.00 | 0.00 | 75 | 1013.2 |
| 20260901032048 | 16 | 141 | 8.0 | 22.5 | 0.00 | 0.00 | 0.00 | 75 | 1013.3 |
| 20260901031558 | 16 | 219 | 6.4 | 19.3 | 0.00 | 0.00 | 0.00 | 75 | 1013.2 |
| 20260901031047 | 16 | 172 | 8.0 | 22.5 | 0.00 | 0.00 | 0.00 | 75 | 1013.2 |
| 20260901030546 | 16 | 274 | 8.0 | 24.1 | 0.00 | 0.00 | 0.00 | 74 | 1013.2 |
| 20260901030111 | 16 | 230 | 6.4 | 24.1 | 0.00 | 0.00 | 0.00 | 74 | 1013.1 |
| 20260901025547 | 16 | 260 | 6.4 | 22.5 | 0.00 | 0.00 | 0.00 | 74 | 1013.2 |
| 20260901025051 | 16 | 137 | 9.7 | 22.5 | 0.00 | 0.00 | 0.00 | 74 | 1013.1 |
| 20260901024600 | 16 | 252 | 8.0 | 22.5 | 0.00 | 0.00 | 0.00 | 74 | 1013.1 |
| 20260901024047 | 16 | 282 | 6.4 | 20.9 | 0.00 | 0.00 | 0.00 | 74 | 1013.1 |
| 20260901023547 | 16 | 147 | 6.4 | 20.9 | 0.00 | 0.00 | 0.00 | 74 | 1013.1 |
| 20260901023107 | 16 | 257 | 8.0 | 25.7 | 0.00 | 0.00 | 0.00 | 73 | 1013.1 |
| 20260901022547 | 16 | 153 | 6.4 | 25.7 | 0.00 | 0.00 | 0.00 | 73 | 1013.0 |
| 20260901022047 | 16 | 267 | 4.8 | 25.7 | 0.00 | 0.00 | 0.00 | 72 | 1012.9 |
| 20260901021607 | 16 | 141 | 4.8 | 24.1 | 0.00 | 0.00 | 0.00 | 72 | 1013.0 |
| 20260901021047 | 16 | 231 | 4.8 | 24.1 | 0.00 | 0.00 | 0.00 | 72 | 1013.0 |
| 20260901020545 | 17 | 215 | 6.4 | 24.1 | 0.00 | 0.00 | 0.00 | 71 | 1013.0 |
| 20260901020101 | 17 | 257 | 6.4 | 17.7 | 0.00 | 0.00 | 0.00 | 71 | 1013.0 |
| 20260901015545 | 17 | 132 | 6.4 | 17.7 | 0.00 | 0.00 | 0.00 | 71 | 1013.1 |
| 20260901015046 | 17 | 208 | 8.0 | 22.5 | 0.00 | 0.00 | 0.00 | 71 | 1013.1 |
| 20260901014558 | 17 | 293 | 8.0 | 22.5 | 0.00 | 0.00 | 0.00 | 71 | 1013.2 |
| 20260901014046 | 17 | 245 | 6.4 | 22.5 | 0.00 | 0.00 | 0.00 | 71 | 1013.1 |
| 20260901013546 | 17 | 222 | 8.0 | 19.3 | 0.00 | 0.00 | 0.00 | 70 | 1013.3 |
| 20260901013057 | 17 | 236 | 8.0 | 19.3 | 0.00 | 0.00 | 0.00 | 70 | 1013.3 |
| 20260901012547 | 18 | 256 | 6.4 | 19.3 | 0.00 | 0.00 | 0.00 | 69 | 1013.2 |
| 20260901012045 | 18 | 176 | 9.7 | 20.9 | 0.00 | 0.00 | 0.00 | 69 | 1013.2 |
| 20260901011604 | 18 | 243 | 6.4 | 20.9 | 0.00 | 0.00 | 0.00 | 69 | 1013.1 |
| 20260901011046 | 18 | 182 | 6.4 | 19.3 | 0.00 | 0.00 | 0.00 | 68 | 1013.1 |
| 20260901010546 | 18 | 233 | 8.0 | 19.3 | 0.00 | 0.00 | 0.00 | 68 | 1013.1 |
| 20260901010114 | 18 | 243 | 8.0 | 19.3 | 0.00 | 0.00 | 0.00 | 69 | 1013.2 |
| 20260901005545 | 18 | 171 | 8.0 | 20.9 | 0.00 | 0.00 | 0.00 | 69 | 1013.2 |
| 20260901005045 | 18 | 114 | 11.3 | 20.9 | 0.00 | 0.00 | 0.00 | 69 | 1013.1 |
| 20260901004556 | 18 | 238 | 11.3 | 27.4 | 0.00 | 0.00 | 0.00 | 67 | 1013.2 |
| 20260901004045 | 19 | 247 | 8.0 | 27.4 | 0.00 | 0.00 | 0.00 | 67 | 1013.1 |
| 20260901003547 | 20 | 230 | 6.4 | 19.3 | 0.00 | 0.00 | 0.00 | 65 | 1013.0 |
| 20260901003106 | 19 | 203 | 6.4 | 24.1 | 0.00 | 0.00 | 0.00 | 66 | 1013.1 |
| 20260901002548 | 19 | 221 | 9.7 | 24.1 | 0.00 | 0.00 | 0.00 | 66 | 1013.0 |
| 20260901002049 | 20 | 255 | 6.4 | 20.9 | 0.00 | 0.00 | 0.00 | 64 | 1013.1 |
| 20260901001603 | 20 | 150 | 9.7 | 20.9 | 0.00 | 0.00 | 0.00 | 66 | 1013.1 |
| 20260901001049 | 20 | 185 | 6.4 | 20.9 | 0.00 | 0.00 | 0.00 | 65 | 1013.1 |
| 20260901000544 | 20 | 210 | 8.0 | 22.5 | 0.00 | 0.00 | 0.00 | 66 | 1013.2 |
| 20260901000107 | 20 | 229 | 4.8 | 22.5 | 0.00 | 0.00 | 0.00 | 65 | 1013.1 |
| 20260831235545 | 20 | 249 | 8.0 | 17.7 | 0.00 | 0.00 | 0.00 | 65 | 1013.2 |
| 20260831235045 | 20 | 198 | 6.4 | 24.1 | 0.00 | 0.00 | 0.00 | 66 | 1013.3 |
| 20260831234558 | 19 | 193 | 11.3 | 24.1 | 0.00 | 0.00 | 0.00 | 66 | 1013.2 |
| 20260831234048 | 19 | 271 | 11.3 | 25.7 | 0.00 | 0.00 | 0.00 | 66 | 1013.2 |
| 20260831233548 | 20 | 108 | 8.0 | 25.7 | 0.00 | 0.00 | 0.00 | 66 | 1013.3 |
| 20260831233053 | 20 | 245 | 11.3 | 20.9 | 0.00 | 0.00 | 0.00 | 65 | 1013.3 |
| 20260831232545 | 20 | 250 | 8.0 | 22.5 | 0.00 | 0.00 | 0.00 | 66 | 1013.2 |
| 20260831232045 | 19 | 240 | 8.0 | 22.5 | 0.00 | 0.00 | 0.00 | 67 | 1013.4 |